Location: Churchill Northern Studies Centre
(58.7378°N, 93.8201°W)
Time: 22:26:53
(UTC-06:00)

Gurwin Techsat 1B - Visible Passes

Search period start: 21 January 2018 00:00
Search period end: 31 January 2018 00:00
Orbit: 811 x 815 km, 98.6° (Epoch: 21 January)

Date Brightness Start Highest point End Pass type
(mag) Time Alt. Az. Time Alt. Az. Time Alt. Az.
21 Jan 11.4 02:56:06 10° NNE 02:56:26 12° NNE 02:56:26 12° NNE visible
21 Jan 10.9 04:36:42 10° N 04:37:38 14° N 04:37:38 14° N visible
22 Jan 11.5 02:33:14 10° NNE 02:33:23 11° NNE 02:33:23 11° NNE visible
22 Jan 10.9 04:13:40 10° N 04:14:35 14° N 04:14:35 14° N visible
22 Jan 10.8 05:55:32 10° NNW 05:55:48 10° NNW 05:55:48 10° NNW visible
23 Jan 11.0 03:50:40 10° N 03:51:33 15° N 03:51:33 15° N visible
23 Jan 10.8 05:31:51 10° N 05:32:45 12° NNW 05:32:45 12° NNW visible
24 Jan 11.1 03:27:42 10° NNE 03:28:30 14° N 03:28:30 14° N visible
24 Jan 10.8 05:08:36 10° N 05:09:43 13° NNW 05:09:43 13° NNW visible
25 Jan 11.2 03:04:47 10° NNE 03:05:28 14° NNE 03:05:28 14° NNE visible
25 Jan 10.8 04:45:27 10° N 04:46:41 15° N 04:46:41 15° N visible
26 Jan 11.3 02:41:54 10° NNE 02:42:26 13° NNE 02:42:26 13° NNE visible
26 Jan 10.8 04:22:23 10° N 04:23:38 15° N 04:23:38 15° N visible
27 Jan 11.5 02:19:05 10° NNE 02:19:23 12° NNE 02:19:23 12° NNE visible
27 Jan 10.8 03:59:23 10° N 04:00:36 16° N 04:00:36 16° N visible
27 Jan 10.8 05:40:45 10° N 05:41:49 12° NNW 05:41:49 12° NNW visible
28 Jan 11.6 01:56:18 10° NNE 01:56:21 10° NNE 01:56:21 10° NNE visible
28 Jan 10.9 03:36:25 10° N 03:37:34 16° N 03:37:34 16° N visible
28 Jan 10.7 05:17:24 10° N 05:18:47 13° NNW 05:18:47 13° NNW visible
29 Jan 11.0 03:13:29 10° NNE 03:14:32 16° N 03:14:32 16° N visible
29 Jan 10.7 04:54:14 10° N 04:55:45 15° NNW 04:55:45 15° NNW visible
30 Jan 11.1 02:50:35 10° NNE 02:51:30 15° NNE 02:51:30 15° NNE visible
30 Jan 10.6 04:31:09 10° N 04:32:43 17° N 04:32:43 17° N visible
